Location: Allie Creek
(37.5926°N, 89.8526°W)
Time: 15:12:36
(UTC+00:00)

Meteor 1-27 Rocket - Pass Details

Date: 17 April 2024
Orbit: 829 x 909 km, 81.3° (Epoch: 26 May)

Event Time Altitude Azimuth Distance (km) Brightness Sun altitude
Exits shadow 09:28:34 29° 283° (WNW) 1,547 4.7 -21.2°
Maximum altitude 09:28:44 29° 286° (WNW) 1,545 4.7 -21.2°
Drops below altitude 10° 09:33:39 10° 346° (NNW) 2,509 6.4 -20.3°
Sets 09:36:24 0° 358° (N) 3,437 7.3 -19.9°
